Location: Newark
(47.5833°N, 8.1500°E)
Time: 22:24:31
(UTC+00:00)

Tiros 1 despin weight - Pass Details

Date: 28 October 2020
Orbit: 593 x 642 km, 48.2° (Epoch: 28 November)

Event Time Altitude Azimuth Distance (km) Brightness Sun altitude
Rises 00:08:24 0° 228° (SW) 2,858 - -53.6°
Reaches altitude 10° 00:10:47 10° 221° (SW) 1,949 - -53.4°
Maximum altitude 00:14:59 41° 151° (SSE) 875 - -53.1°
Drops below altitude 10° 00:19:09 10° 82° (E) 1,934 - -52.8°
Sets 00:21:31 0° 75° (ENE) 2,834 - -52.6°
